| time (UTC) | temp F | wind direction | speed knots | gust knots | rain 1hr in | rain 24hr in | rain mn in | humidity % | barometer mb |
| 20260508173635 | 63 | 189 | 1.7 | 5.2 | 0.00 | 0.00 | 0.00 | 44 | 1008.8 |
| 20260508172635 | 63 | 134 | 1.7 | 4.3 | 0.00 | 0.00 | 0.00 | 42 | 1009.0 |
| 20260508172135 | 65 | 237 | 1.7 | 7.8 | 0.00 | 0.00 | 0.00 | 40 | 1009.1 |
| 20260508170633 | 65 | 155 | 1.7 | 6.1 | 0.00 | 0.00 | 0.00 | 35 | 1009.1 |
| 20260508170139 | 64 | 255 | 0.9 | 5.2 | 0.00 | 0.00 | 0.00 | 36 | 1009.1 |
| 20260508165135 | 64 | 287 | 0.9 | 6.1 | 0.00 | 0.00 | 0.00 | 36 | 1009.4 |
| 20260508163634 | 64 | 347 | 0.9 | 5.2 | 0.00 | 0.00 | 0.00 | 34 | 1009.5 |
| 20260508162633 | 64 | 221 | 1.7 | 7.0 | 0.00 | 0.00 | 0.00 | 36 | 1009.5 |
| 20260508161629 | 63 | 239 | 0.0 | 3.5 | 0.00 | 0.00 | 0.00 | 35 | 1009.6 |
| 20260508160629 | 62 | 69 | 0.9 | 3.5 | 0.00 | 0.00 | 0.00 | 35 | 1009.7 |
| 20260508155628 | 62 | 115 | 1.7 | 7.0 | 0.00 | 0.00 | 0.00 | 35 | 1009.9 |
| 20260508154628 | 61 | 272 | 1.7 | 7.0 | 0.00 | 0.00 | 0.00 | 36 | 1009.8 |
| 20260508153630 | 61 | 302 | 0.9 | 7.0 | 0.00 | 0.00 | 0.00 | 36 | 1009.9 |
| 20260508152641 | 62 | 236 | 0.9 | 3.5 | 0.00 | 0.00 | 0.00 | 35 | 1010.0 |
| 20260508151629 | 60 | 314 | 0.9 | 6.1 | 0.00 | 0.00 | 0.00 | 38 | 1010.1 |
| 20260508150629 | 60 | 263 | 0.9 | 5.2 | 0.00 | 0.00 | 0.00 | 37 | 1010.2 |
| 20260508150131 | 60 | 250 | 0.9 | 6.1 | 0.00 | 0.00 | 0.00 | 35 | 1010.4 |
| 20260508144622 | 60 | 351 | 0.9 | 5.2 | 0.00 | 0.00 | 0.00 | 37 | 1010.4 |
| 20260508144124 | 60 | 253 | 0.9 | 6.1 | 0.00 | 0.00 | 0.00 | 38 | 1010.4 |
| 20260508142624 | 60 | 287 | 0.9 | 8.7 | 0.00 | 0.00 | 0.00 | 36 | 1010.5 |
| 20260508141622 | 60 | 232 | 0.9 | 4.3 | 0.00 | 0.00 | 0.00 | 37 | 1010.5 |
| 20260508140622 | 59 | 280 | 1.7 | 5.2 | 0.00 | 0.00 | 0.00 | 39 | 1010.5 |
| 20260508140122 | 59 | 304 | 0.9 | 3.5 | 0.00 | 0.00 | 0.00 | 38 | 1010.6 |
| 20260508134622 | 58 | 287 | 0.9 | 6.1 | 0.00 | 0.00 | 0.00 | 44 | 1010.6 |
| 20260508133621 | 58 | 101 | 0.0 | 2.6 | 0.00 | 0.00 | 0.00 | 41 | 1010.6 |
| 20260508132622 | 57 | 41 | 0.0 | 3.5 | 0.00 | 0.00 | 0.00 | 45 | 1010.6 |
| 20260508131616 | 56 | 300 | 0.0 | 3.5 | 0.00 | 0.00 | 0.00 | 46 | 1010.7 |
| 20260508131117 | 56 | 283 | 0.0 | 3.5 | 0.00 | 0.00 | 0.00 | 47 | 1010.7 |
| 20260508130117 | 56 | 129 | 0.9 | 2.6 | 0.00 | 0.00 | 0.00 | 46 | 1010.7 |
| 20260508124616 | 56 | 229 | 0.9 | 4.3 | 0.00 | 0.00 | 0.00 | 48 | 1010.7 |
| 20260508123617 | 55 | 330 | 0.9 | 4.3 | 0.00 | 0.00 | 0.00 | 50 | 1010.6 |
| 20260508122618 | 54 | 285 | 0.0 | 1.7 | 0.00 | 0.01 | 0.00 | 54 | 1010.7 |
| 20260508121617 | 52 | 257 | 0.0 | 2.6 | 0.00 | 0.01 | 0.00 | 60 | 1010.8 |
| 20260508121118 | 50 | 266 | 0.0 | 1.7 | 0.00 | 0.02 | 0.00 | 61 | 1010.8 |
| 20260508115615 | 49 | 267 | 0.0 | 1.7 | 0.00 | 0.03 | 0.00 | 62 | 1010.9 |
| 20260508114613 | 49 | 235 | 0.0 | 1.7 | 0.00 | 0.03 | 0.00 | 64 | 1011.0 |
| 20260508113610 | 49 | 249 | 0.0 | 0.9 | 0.00 | 0.03 | 0.00 | 65 | 1010.9 |
| 20260508112613 | 49 | 229 | 0.0 | 0.9 | 0.00 | 0.04 | 0.00 | 66 | 1010.7 |
| 20260508111611 | 48 | 252 | 0.0 | 1.7 | 0.00 | 0.05 | 0.00 | 65 | 1010.7 |
| 20260508110611 | 47 | 280 | 0.0 | 0.9 | 0.00 | 0.05 | 0.00 | 68 | 1010.6 |
| 20260508105611 | 47 | 280 | 0.0 | 0.9 | 0.00 | 0.05 | 0.00 | 70 | 1010.6 |
| 20260508104611 | 45 | 279 | 0.0 | 0.9 | 0.00 | 0.06 | 0.00 | 73 | 1010.6 |
| 20260508103611 | 44 | 281 | 0.0 | 0.0 | 0.00 | 0.07 | 0.00 | 75 | 1010.4 |
| 20260508103111 | 44 | 281 | 0.0 | 0.0 | 0.00 | 0.07 | 0.00 | 76 | 1010.2 |
| 20260508102106 | 43 | 281 | 0.0 | 0.0 | 0.00 | 0.08 | 0.00 | 78 | 1010.1 |
| 20260508100604 | 42 | 281 | 0.0 | 0.0 | 0.00 | 0.09 | 0.00 | 80 | 1010.1 |
| 20260508095604 | 41 | 281 | 0.0 | 0.0 | 0.00 | 0.10 | 0.00 | 80 | 1010.0 |
| 20260508094604 | 40 | 281 | 0.0 | 0.0 | 0.00 | 0.10 | 0.00 | 79 | 1009.9 |
| 20260508093617 | 40 | 281 | 0.0 | 0.0 | 0.00 | 0.11 | 0.00 | 81 | 1009.8 |
| 20260508092606 | 40 | 281 | 0.0 | 0.0 | 0.00 | 0.12 | 0.00 | 79 | 1009.8 |
| 20260508091604 | 40 | 281 | 0.0 | 0.9 | 0.00 | 0.14 | 0.00 | 80 | 1009.8 |
| 20260508090607 | 40 | 281 | 0.0 | 0.0 | 0.00 | 0.15 | 0.00 | 80 | 1009.7 |
| 20260508085604 | 40 | 281 | 0.0 | 0.0 | 0.00 | 0.16 | 0.00 | 79 | 1009.6 |
| 20260508084558 | 40 | 281 | 0.0 | 0.0 | 0.00 | 0.18 | 0.00 | 79 | 1009.3 |
| 20260508083558 | 41 | 281 | 0.0 | 0.0 | 0.00 | 0.19 | 0.00 | 77 | 1009.2 |
| 20260508082606 | 42 | 281 | 0.0 | 0.0 | 0.00 | 0.30 | 0.00 | 74 | 1008.9 |
| 20260508082559 | 41 | 281 | 0.0 | 0.0 | 0.00 | 0.23 | 0.00 | 76 | 1009.1 |
| 20260508081714 | 42 | 281 | 0.0 | 0.0 | 0.00 | 0.41 | 0.00 | 73 | 1008.8 |
| 20260508075558 | 42 | 281 | 0.0 | 0.0 | 0.00 | 0.42 | 0.00 | 72 | 1008.7 |
| 20260508074600 | 43 | 281 | 0.0 | 0.0 | 0.00 | 0.42 | 0.00 | 70 | 1008.5 |
| 20260508073558 | 43 | 281 | 0.0 | 0.0 | 0.00 | 0.42 | 0.00 | 70 | 1008.3 |
| 20260508072558 | 44 | 281 | 0.0 | 0.0 | 0.00 | 0.42 | 0.00 | 70 | 1008.3 |
| 20260508071554 | 45 | 281 | 0.0 | 0.0 | 0.00 | 0.42 | 0.00 | 65 | 1008.0 |
| 20260508070552 | 46 | 281 | 0.0 | 0.0 | 0.00 | 0.42 | 0.00 | 64 | 1008.1 |
| 20260508065552 | 47 | 281 | 0.0 | 0.0 | 0.00 | 0.42 | 0.00 | 62 | 1008.2 |
| 20260508065055 | 47 | 281 | 0.0 | 0.0 | 0.00 | 0.42 | 0.00 | 60 | 1008.2 |
| 20260508063552 | 47 | 281 | 0.0 | 0.9 | 0.00 | 0.42 | 0.00 | 59 | 1008.1 |
| 20260508062554 | 47 | 281 | 0.0 | 0.0 | 0.00 | 0.42 | 0.00 | 61 | 1008.1 |
| 20260508061552 | 47 | 281 | 0.0 | 0.0 | 0.00 | 0.42 | 0.00 | 63 | 1007.9 |
| 20260508060551 | 48 | 281 | 0.0 | 0.0 | 0.00 | 0.42 | 0.00 | 63 | 1007.9 |
| 20260508060054 | 49 | 281 | 0.0 | 0.0 | 0.00 | 0.42 | 0.00 | 58 | 1007.9 |
| 20260508054546 | 49 | 281 | 0.0 | 0.0 | 0.00 | 0.42 | 0.00 | 55 | 1008.0 |
| 20260508053546 | 50 | 281 | 0.0 | 0.9 | 0.00 | 0.42 | 0.00 | 53 | 1008.0 |
| 20260508052547 | 51 | 264 | 0.0 | 0.0 | 0.00 | 0.42 | 0.00 | 53 | 1007.9 |
| 20260508052047 | 51 | 262 | 0.0 | 0.9 | 0.00 | 0.42 | 0.00 | 52 | 1007.9 |
| 20260508051046 | 52 | 262 | 0.0 | 0.9 | 0.00 | 0.42 | 0.00 | 51 | 1007.9 |
| 20260508045547 | 52 | 245 | 0.0 | 4.3 | 0.00 | 0.42 | 0.00 | 50 | 1007.9 |
| 20260508044547 | 52 | 316 | 0.0 | 6.1 | 0.00 | 0.42 | 0.00 | 50 | 1007.9 |
| 20260508043547 | 52 | 295 | 0.0 | 1.7 | 0.00 | 0.42 | 0.00 | 50 | 1007.9 |
| 20260508042546 | 52 | 257 | 0.0 | 1.7 | 0.00 | 0.42 | 0.00 | 51 | 1007.9 |
| 20260508041540 | 52 | 346 | 0.0 | 0.9 | 0.00 | 0.42 | 0.00 | 50 | 1007.9 |
| 20260508040540 | 52 | 260 | 0.0 | 1.7 | 0.00 | 0.42 | 0.00 | 50 | 1007.9 |
| 20260508035539 | 53 | 280 | 0.0 | 1.7 | 0.00 | 0.42 | 0.42 | 49 | 1008.0 |
| 20260508034541 | 53 | 287 | 0.0 | 3.5 | 0.00 | 0.42 | 0.42 | 49 | 1007.9 |
| 20260508033538 | 52 | 278 | 0.0 | 2.6 | 0.00 | 0.42 | 0.42 | 50 | 1008.0 |
| 20260508033040 | 52 | 283 | 0.0 | 1.7 | 0.00 | 0.42 | 0.42 | 50 | 1008.0 |
| 20260508031538 | 52 | 332 | 0.0 | 1.7 | 0.00 | 0.42 | 0.42 | 52 | 1008.0 |
| 20260508031040 | 51 | 258 | 0.0 | 1.7 | 0.00 | 0.42 | 0.42 | 54 | 1008.1 |
| 20260508025539 | 52 | 257 | 0.0 | 1.7 | 0.00 | 0.42 | 0.42 | 53 | 1008.2 |
| 20260508024535 | 52 | 274 | 0.0 | 0.9 | 0.00 | 0.42 | 0.42 | 52 | 1008.2 |
| 20260508023532 | 53 | 246 | 0.0 | 0.9 | 0.00 | 0.42 | 0.42 | 51 | 1008.0 |
| 20260508023034 | 53 | 258 | 0.0 | 0.9 | 0.00 | 0.42 | 0.42 | 51 | 1008.1 |
| 20260508021537 | 53 | 221 | 0.0 | 2.6 | 0.00 | 0.42 | 0.42 | 50 | 1008.2 |
| 20260508021034 | 53 | 274 | 0.0 | 3.5 | 0.00 | 0.42 | 0.42 | 50 | 1008.1 |
| 20260508020648 | 54 | 302 | 0.0 | 0.9 | 0.00 | 0.42 | 0.42 | 50 | 1008.0 |
| 20260508014534 | 54 | 235 | 0.0 | 0.9 | 0.00 | 0.42 | 0.42 | 50 | 1008.1 |
| 20260508013538 | 55 | 283 | 0.0 | 3.5 | 0.00 | 0.42 | 0.42 | 49 | 1007.8 |
| 20260508013033 | 55 | 284 | 0.0 | 1.7 | 0.00 | 0.42 | 0.42 | 49 | 1007.7 |
| 20260508011533 | 55 | 266 | 0.0 | 0.9 | 0.00 | 0.43 | 0.42 | 48 | 1007.6 |
| 20260508011527 | 55 | 246 | 0.0 | 0.9 | 0.00 | 0.42 | 0.42 | 48 | 1007.8 |
| 20260508005528 | 56 | 64 | 0.0 | 3.5 | 0.00 | 0.43 | 0.42 | 46 | 1007.5 |
| 20260508004532 | 57 | 269 | 0.0 | 5.2 | 0.00 | 0.43 | 0.42 | 43 | 1007.3 |
| 20260508004526 | 56 | 266 | 0.0 | 0.9 | 0.00 | 0.43 | 0.42 | 45 | 1007.4 |
| 20260508003028 | 57 | 286 | 0.0 | 2.6 | 0.00 | 0.43 | 0.42 | 42 | 1006.6 |
| 20260508001526 | 58 | 40 | 0.0 | 5.2 | 0.00 | 0.43 | 0.42 | 42 | 1006.5 |
| 20260508001028 | 58 | 289 | 0.0 | 3.5 | 0.00 | 0.44 | 0.42 | 42 | 1006.5 |
| 20260507235526 | 59 | 300 | 0.0 | 1.7 | 0.00 | 0.45 | 0.42 | 40 | 1006.3 |
| 20260507235025 | 60 | 293 | 0.9 | 6.1 | 0.00 | 0.46 | 0.42 | 40 | 1006.3 |
| 20260507233525 | 60 | 294 | 0.9 | 6.1 | 0.00 | 0.47 | 0.42 | 38 | 1006.3 |
| 20260507232525 | 61 | 287 | 0.9 | 4.3 | 0.00 | 0.48 | 0.42 | 37 | 1006.2 |
| 20260507231525 | 62 | 284 | 0.9 | 5.2 | 0.00 | 0.48 | 0.42 | 37 | 1005.9 |
| 20260507230522 | 62 | 276 | 0.9 | 3.5 | 0.00 | 0.49 | 0.42 | 37 | 1005.8 |
| 20260507225522 | 63 | 209 | 0.0 | 1.7 | 0.00 | 0.50 | 0.42 | 37 | 1005.6 |
| 20260507224528 | 64 | 277 | 0.9 | 5.2 | 0.00 | 0.51 | 0.42 | 35 | 1005.5 |
| 20260507224522 | 63 | 52 | 0.9 | 3.5 | 0.00 | 0.51 | 0.42 | 35 | 1005.6 |
| 20260507222523 | 64 | 331 | 0.9 | 5.2 | 0.00 | 0.52 | 0.42 | 34 | 1005.4 |
| 20260507222024 | 65 | 255 | 1.7 | 7.0 | 0.00 | 0.52 | 0.42 | 35 | 1005.3 |
| 20260507220523 | 66 | 91 | 0.9 | 6.1 | 0.00 | 0.52 | 0.42 | 34 | 1005.3 |
| 20260507215522 | 67 | 295 | 0.9 | 4.3 | 0.00 | 0.52 | 0.42 | 33 | 1005.2 |
| 20260507214523 | 67 | 86 | 1.7 | 7.0 | 0.00 | 0.52 | 0.42 | 36 | 1005.1 |
| 20260507214024 | 67 | 288 | 0.9 | 6.1 | 0.00 | 0.52 | 0.42 | 34 | 1005.1 |
| 20260507212522 | 68 | 355 | 0.9 | 5.2 | 0.00 | 0.52 | 0.42 | 32 | 1005.0 |
| 20260507211525 | 68 | 261 | 0.9 | 4.3 | 0.00 | 0.52 | 0.42 | 32 | 1004.9 |
| 20260507210523 | 67 | 148 | 0.9 | 6.1 | 0.00 | 0.52 | 0.42 | 32 | 1004.9 |
| 20260507205517 | 68 | 338 | 0.9 | 7.0 | 0.00 | 0.52 | 0.42 | 32 | 1004.8 |
| 20260507204518 | 68 | 284 | 1.7 | 7.0 | 0.00 | 0.52 | 0.42 | 34 | 1004.8 |
| 20260507203516 | 68 | 238 | 0.9 | 3.5 | 0.00 | 0.52 | 0.42 | 36 | 1004.8 |
| 20260507203018 | 68 | 148 | 0.0 | 3.5 | 0.00 | 0.52 | 0.42 | 34 | 1004.7 |
| 20260507202017 | 67 | 276 | 0.9 | 6.1 | 0.00 | 0.52 | 0.42 | 35 | 1004.8 |
| 20260507200517 | 67 | 215 | 1.7 | 7.0 | 0.00 | 0.52 | 0.42 | 36 | 1004.7 |
| 20260507195516 | 67 | 89 | 0.9 | 6.1 | 0.00 | 0.52 | 0.42 | 33 | 1004.8 |
| 20260507195017 | 67 | 281 | 1.7 | 6.1 | 0.00 | 0.52 | 0.42 | 36 | 1005.1 |
| 20260507193516 | 67 | 40 | 0.9 | 4.3 | 0.00 | 0.52 | 0.42 | 35 | 1005.2 |
| 20260507192510 | 66 | 47 | 0.9 | 6.1 | 0.00 | 0.52 | 0.42 | 36 | 1005.4 |
| 20260507191510 | 66 | 141 | 0.9 | 2.6 | 0.00 | 0.52 | 0.42 | 39 | 1005.6 |
| 20260507191013 | 65 | 215 | 1.7 | 7.0 | 0.00 | 0.52 | 0.42 | 38 | 1005.7 |
| 20260507185512 | 64 | 218 | 0.9 | 4.3 | 0.00 | 0.52 | 0.42 | 51 | 1005.8 |
| 20260507184510 | 65 | 293 | 0.9 | 2.6 | 0.00 | 0.52 | 0.42 | 47 | 1006.0 |
| 20260507183510 | 65 | 257 | 0.9 | 3.5 | 0.00 | 0.52 | 0.42 | 68 | 1006.1 |
| 20260507183013 | 64 | 221 | 0.9 | 2.6 | 0.00 | 0.52 | 0.42 | 68 | 1006.2 |